TimeAST,TemperatureF,Dew PointF,Humidity,Sea Level PressureIn,VisibilityMPH,Wind Direction,Wind SpeedMPH,Gust SpeedMPH,PrecipitationIn,Events,Conditions,WindDirDegrees,DateUTC
12:00 AM,77.0,71.6,83,30.01,6.2,Variable,2.3,-,N/A,,Partly Cloudy,0,2013-12-06 04:00:00
1:00 AM,78.8,73.4,83,30.01,6.2,ENE,5.8,-,N/A,,Partly Cloudy,70,2013-12-06 05:00:00
2:00 AM,78,72,77,30.00,25,ENE,8.1,,,Rain,Light Rain Showers,60,2013-12-06 06:00:00
2:00 AM,77.0,71.6,83,29.98,6.2,NE,5.8,-,N/A,,Partly Cloudy,40,2013-12-06 06:00:00
3:00 AM,78.8,69.8,74,29.98,6.2,ENE,9.2,-,N/A,,Partly Cloudy,60,2013-12-06 07:00:00
4:00 AM,78.8,69.8,74,29.98,6.2,ENE,10.4,-,N/A,Rain,Light Rain Showers,70,2013-12-06 08:00:00
5:00 AM,78,68,65,29.98,25,East,13.8,,,Rain,Light Rain Showers,90,2013-12-06 09:00:00
5:00 AM,78.8,68.0,69,29.98,6.2,ENE,12.7,-,N/A,,Partly Cloudy,70,2013-12-06 09:00:00
6:00 AM,78.8,68.0,69,29.98,6.2,ENE,10.4,-,N/A,,Partly Cloudy,70,2013-12-06 10:00:00
7:00 AM,78.8,68.0,69,29.98,6.2,ENE,11.5,-,N/A,,Partly Cloudy,60,2013-12-06 11:00:00
8:00 AM,81,70,62,30.03,25,ENE,10.4,,,,Partly Cloudy,60,2013-12-06 12:00:00
8:00 AM,80.6,69.8,70,30.01,6.2,ENE,10.4,-,N/A,,Partly Cloudy,60,2013-12-06 12:00:00
9:00 AM,82.4,68.0,62,30.04,6.2,NE,15.0,-,N/A,,Partly Cloudy,50,2013-12-06 13:00:00
10:00 AM,84.2,69.8,62,30.04,6.2,NE,17.3,-,N/A,,Partly Cloudy,50,2013-12-06 14:00:00
11:00 AM,85,70,52,30.03,25,ENE,15.0,,,,Scattered Clouds,70,2013-12-06 15:00:00
11:00 AM,84.2,69.8,62,30.01,6.2,ENE,15.0,-,N/A,,Partly Cloudy,70,2013-12-06 15:00:00
12:00 PM,84.2,71.6,66,30.01,6.2,ENE,11.5,-,N/A,,Scattered Clouds,70,2013-12-06 16:00:00
1:00 PM,84.2,69.8,62,29.98,6.2,ENE,15.0,-,N/A,,Scattered Clouds,70,2013-12-06 17:00:00
2:00 PM,83,69,53,29.98,6,East,11.5,,,,Mostly Cloudy,90,2013-12-06 18:00:00
2:00 PM,82.4,69.8,66,29.98,6.2,East,11.5,-,N/A,,Mostly Cloudy,90,2013-12-06 18:00:00
3:00 PM,75.2,69.8,83,29.98,6.2,East,15.0,-,N/A,Rain-Thunderstorm,Thunderstorms and Rain,80,2013-12-06 19:00:00
4:00 PM,75.2,69.8,83,29.98,6.2,East,9.2,-,N/A,,Scattered Clouds,80,2013-12-06 20:00:00
5:00 PM,77.0,69.8,78,29.98,6.2,East,10.4,-,N/A,Rain,Light Rain,90,2013-12-06 21:00:00
6:00 PM,75.2,68.0,78,29.98,6.2,East,11.5,-,N/A,Rain,Light Rain,100,2013-12-06 22:00:00
7:00 PM,75.2,68.0,78,29.98,6.2,East,10.4,-,N/A,,Partly Cloudy,80,2013-12-06 23:00:00
8:00 PM,77,70,72,30.02,19,East,10.4,,,,Partly Cloudy,80,2013-12-07 00:00:00
8:00 PM,77.0,69.8,78,30.01,6.2,East,10.4,-,N/A,,Scattered Clouds,80,2013-12-07 00:00:00
9:00 PM,77.0,69.8,78,30.01,6.2,ENE,10.4,-,N/A,,Mostly Cloudy,70,2013-12-07 01:00:00
10:00 PM,77.0,68.0,74,30.04,6.2,East,9.2,-,N/A,,Partly Cloudy,80,2013-12-07 02:00:00
11:00 PM,78,66,59,30.04,25,ENE,18.4,,,,Scattered Clouds,60,2013-12-07 03:00:00
11:00 PM,78.8,66.2,65,30.04,6.2,ENE,18.4,-,N/A,,Partly Cloudy,60,2013-12-07 03:00:00